N12VK CYVO-CYUY

Flight info

Callsign N12VK
Flight time 0h 41m
Altitude 6500
Route X
Aircraft TBM8/L-VGD/A

Departure

Time 2026-05-08 22:38
Airport Val-d'Or Airport (CYVO)

Arrival

Time 2026-05-08 23:20
Airport Rouyn Noranda Airport (CYUY)
Time Latitude Longitude Altitude Speed Heading
2026-05-08 22:36 48.05313 -77.78565 1102 ft 10 kts 66°
2026-05-08 22:36 48.05316 -77.78472 1102 ft 0 kts 88°
2026-05-08 22:36 48.05317 -77.78461 1101 ft 5 kts 80°
2026-05-08 22:37 48.05321 -77.78434 1103 ft 0 kts 77°
2026-05-08 22:37 48.05325 -77.78396 1097 ft 18 kts 80°
2026-05-08 22:37 48.05234 -77.78243 1106 ft 39 kts 169°
2026-05-08 22:38 48.04747 -77.78094 1114 ft 101 kts 172°
2026-05-08 22:38 48.03896 -77.77842 1191 ft 146 kts 173°
2026-05-08 22:38 48.02871 -77.77787 1663 ft 148 kts 197°
2026-05-08 22:38 48.02399 -77.78942 2180 ft 150 kts 272°
2026-05-08 22:39 48.02209 -77.80571 2346 ft 170 kts 252°
2026-05-08 22:39 48.01807 -77.82320 2552 ft 182 kts 248°
2026-05-08 22:39 48.01353 -77.84135 2701 ft 190 kts 250°
2026-05-08 22:39 48.01053 -77.85644 4198 ft 116 kts 254°
2026-05-08 22:40 48.00889 -77.86691 5000 ft 108 kts 251°
2026-05-08 22:40 48.00574 -77.87728 5695 ft 102 kts 239°
2026-05-08 22:40 48.00139 -77.88674 6139 ft 123 kts 240°
2026-05-08 22:40 47.99774 -77.90008 6412 ft 153 kts 249°
2026-05-08 22:41 47.99374 -77.91625 6543 ft 177 kts 249°
2026-05-08 22:41 47.98923 -77.93413 6541 ft 188 kts 249°
2026-05-08 22:41 47.98460 -77.95264 6543 ft 193 kts 249°
2026-05-08 22:41 47.97983 -77.97149 6544 ft 195 kts 249°
2026-05-08 22:42 47.97508 -77.99019 6531 ft 196 kts 249°
2026-05-08 22:42 47.97020 -78.00926 6548 ft 199 kts 249°
2026-05-08 22:42 47.96517 -78.02871 6540 ft 202 kts 249°
2026-05-08 22:42 47.96020 -78.04824 6541 ft 200 kts 249°
2026-05-08 22:43 47.95527 -78.06758 6532 ft 199 kts 249°
2026-05-08 22:43 47.95036 -78.08687 6526 ft 199 kts 249°
2026-05-08 22:43 47.94549 -78.10609 6527 ft 198 kts 249°
2026-05-08 22:43 47.94060 -78.12533 6526 ft 199 kts 249°
2026-05-08 22:44 47.93571 -78.14460 6530 ft 199 kts 249°
2026-05-08 22:44 47.93082 -78.16390 6536 ft 199 kts 249°
2026-05-08 22:44 47.92593 -78.18324 6539 ft 199 kts 249°
2026-05-08 22:44 47.92104 -78.20258 6534 ft 200 kts 249°
2026-05-08 22:45 47.91615 -78.22190 6535 ft 199 kts 249°
2026-05-08 22:45 47.91124 -78.24129 6539 ft 201 kts 249°
2026-05-08 22:45 47.90628 -78.26086 6527 ft 203 kts 249°
2026-05-08 22:45 47.90126 -78.28074 6536 ft 206 kts 249°
2026-05-08 22:46 47.89616 -78.30082 6535 ft 209 kts 249°
2026-05-08 22:46 47.89101 -78.32119 6531 ft 211 kts 249°
2026-05-08 22:46 47.88584 -78.34167 6530 ft 212 kts 249°
2026-05-08 22:46 47.88064 -78.36226 6538 ft 213 kts 249°
2026-05-08 22:47 47.87543 -78.38293 6543 ft 214 kts 249°
2026-05-08 22:47 47.87019 -78.40363 6534 ft 213 kts 249°
2026-05-08 22:47 47.86494 -78.42431 6530 ft 214 kts 249°
2026-05-08 22:47 47.85973 -78.44498 6535 ft 213 kts 249°
2026-05-08 22:48 47.85475 -78.46582 6524 ft 213 kts 251°
2026-05-08 22:48 47.85027 -78.48685 6525 ft 213 kts 252°
2026-05-08 22:48 47.84600 -78.50799 6526 ft 213 kts 253°
2026-05-08 22:48 47.84209 -78.52924 6523 ft 213 kts 255°
2026-05-08 22:49 47.83886 -78.55043 6535 ft 213 kts 257°
2026-05-08 22:49 47.83147 -78.59275 6663 ft 206 kts 248°
2026-05-08 22:49 47.82468 -78.61162 6662 ft 207 kts 239°
2026-05-08 22:50 47.81727 -78.63021 6498 ft 211 kts 241°
2026-05-08 22:50 47.81024 -78.64926 6536 ft 208 kts 242°
2026-05-08 22:50 47.80340 -78.66813 6594 ft 205 kts 243°
2026-05-08 22:50 47.79755 -78.68747 6648 ft 205 kts 245°
2026-05-08 22:51 47.79154 -78.70714 6628 ft 214 kts 246°
2026-05-08 22:51 47.78577 -78.72775 6752 ft 217 kts 249°
2026-05-08 22:51 47.78102 -78.74921 6857 ft 220 kts 252°
2026-05-08 22:51 47.77643 -78.77100 6947 ft 221 kts 251°
2026-05-08 22:52 47.77209 -78.79309 6981 ft 225 kts 255°
2026-05-08 22:52 47.76874 -78.81587 7034 ft 226 kts 256°
2026-05-08 22:52 47.76576 -78.83868 7167 ft 224 kts 261°
2026-05-08 22:52 47.76415 -78.86198 7161 ft 229 kts 263°
2026-05-08 22:53 47.76282 -78.88547 7254 ft 226 kts 264°
2026-05-08 22:53 47.76192 -78.90881 7312 ft 228 kts 266°
2026-05-08 22:53 47.76197 -78.93246 7341 ft 230 kts 269°
2026-05-08 22:53 47.76267 -78.95634 7337 ft 232 kts 271°
2026-05-08 22:54 47.76369 -78.98013 7377 ft 231 kts 273°
2026-05-08 22:54 47.76536 -79.00403 7388 ft 233 kts 274°
2026-05-08 22:54 47.76717 -79.02800 7377 ft 234 kts 275°
2026-05-08 22:54 47.77016 -79.05179 7384 ft 236 kts 280°
2026-05-08 22:55 47.77389 -79.07549 7403 ft 235 kts 280°
2026-05-08 22:55 47.77787 -79.09893 7501 ft 233 kts 282°
2026-05-08 22:55 47.78213 -79.12226 7533 ft 233 kts 283°
2026-05-08 22:55 47.78690 -79.14529 7629 ft 233 kts 284°
2026-05-08 22:56 47.79170 -79.16836 7616 ft 236 kts 285°
2026-05-08 22:56 47.79755 -79.19118 7695 ft 235 kts 289°
2026-05-08 22:56 47.80474 -79.21302 7741 ft 236 kts 295°
2026-05-08 22:56 47.81287 -79.23439 7718 ft 239 kts 296°
2026-05-08 22:57 47.82171 -79.25527 7756 ft 239 kts 298°
2026-05-08 22:57 47.83056 -79.27593 7689 ft 241 kts 300°
2026-05-08 22:57 47.84036 -79.29592 7834 ft 237 kts 303°
2026-05-08 22:57 47.85092 -79.31509 7749 ft 242 kts 306°
2026-05-08 22:58 47.86183 -79.33438 7613 ft 245 kts 306°
2026-05-08 22:58 47.87308 -79.35358 7550 ft 245 kts 308°
2026-05-08 22:58 47.88476 -79.37203 7479 ft 246 kts 310°
2026-05-08 22:58 47.89740 -79.38931 7469 ft 246 kts 315°
2026-05-08 22:59 47.91086 -79.40492 7497 ft 246 kts 319°
2026-05-08 22:59 47.92489 -79.41975 7437 ft 248 kts 319°
2026-05-08 22:59 47.93880 -79.43472 7456 ft 245 kts 318°
2026-05-08 22:59 47.95243 -79.45018 7386 ft 248 kts 317°
2026-05-08 23:00 47.96593 -79.46618 7288 ft 248 kts 318°
2026-05-08 23:00 47.98013 -79.48065 7323 ft 246 kts 322°
2026-05-08 23:00 47.99495 -79.49336 7378 ft 244 kts 327°
2026-05-08 23:00 48.01013 -79.50443 7425 ft 242 kts 330°
2026-05-08 23:01 48.02560 -79.51425 7460 ft 241 kts 333°
2026-05-08 23:01 48.04135 -79.52299 7482 ft 243 kts 335°
2026-05-08 23:01 48.05745 -79.53069 7482 ft 244 kts 338°
2026-05-08 23:01 48.07388 -79.53746 7497 ft 246 kts 340°
2026-05-08 23:02 48.09059 -79.54322 7494 ft 247 kts 343°
2026-05-08 23:02 48.10752 -79.54802 7493 ft 249 kts 345°
2026-05-08 23:02 48.12476 -79.55166 7502 ft 252 kts 348°
2026-05-08 23:02 48.14226 -79.55423 7493 ft 254 kts 351°
2026-05-08 23:03 48.15993 -79.55575 7497 ft 255 kts 353°
2026-05-08 23:03 48.17773 -79.55614 7504 ft 257 kts 355°
2026-05-08 23:03 48.19567 -79.55538 7498 ft 258 kts 358°
2026-05-08 23:03 48.21364 -79.55342 7498 ft 259 kts
2026-05-08 23:04 48.23159 -79.55023 7501 ft 261 kts
2026-05-08 23:04 48.24951 -79.54577 7496 ft 261 kts
2026-05-08 23:04 48.26733 -79.54028 7497 ft 262 kts
2026-05-08 23:04 48.28503 -79.53357 7490 ft 262 kts 11°
2026-05-08 23:05 48.30251 -79.52566 7489 ft 263 kts 14°
2026-05-08 23:05 48.31954 -79.51669 7487 ft 263 kts 17°
2026-05-08 23:05 48.33657 -79.50641 7480 ft 264 kts 20°
2026-05-08 23:05 48.35330 -79.49469 7480 ft 266 kts 22°
2026-05-08 23:06 48.36983 -79.48221 7490 ft 266 kts 24°
2026-05-08 23:06 48.38608 -79.46865 7487 ft 268 kts 27°
2026-05-08 23:06 48.40191 -79.45382 7483 ft 268 kts 30°
2026-05-08 23:06 48.41521 -79.44009 7488 ft 269 kts 33°
2026-05-08 23:07 48.43021 -79.42337 7487 ft 269 kts 35°
2026-05-08 23:07 48.44465 -79.40551 7490 ft 269 kts 38°
2026-05-08 23:07 48.45847 -79.38655 7493 ft 269 kts 41°
2026-05-08 23:07 48.47169 -79.36665 7494 ft 269 kts 44°
2026-05-08 23:08 48.48432 -79.34585 7493 ft 269 kts 47°
2026-05-08 23:08 48.49630 -79.32423 7497 ft 269 kts 50°
2026-05-08 23:08 48.50760 -79.30191 7495 ft 269 kts 53°
2026-05-08 23:08 48.51826 -79.27873 7493 ft 269 kts 56°
2026-05-08 23:09 48.52824 -79.25481 7495 ft 270 kts 58°
2026-05-08 23:09 48.53749 -79.23021 7491 ft 270 kts 61°
2026-05-08 23:09 48.54605 -79.20484 7497 ft 271 kts 64°
2026-05-08 23:09 48.55382 -79.17890 7495 ft 272 kts 67°
2026-05-08 23:10 48.56080 -79.15240 7500 ft 272 kts 70°
2026-05-08 23:10 48.56699 -79.12538 7511 ft 272 kts 73°
2026-05-08 23:10 48.57229 -79.09809 7505 ft 271 kts 76°
2026-05-08 23:10 48.57672 -79.07051 7507 ft 270 kts 78°
2026-05-08 23:11 48.58034 -79.04269 7507 ft 270 kts 81°
2026-05-08 23:11 48.58309 -79.01473 7501 ft 269 kts 84°
2026-05-08 23:11 48.58500 -78.98667 7506 ft 268 kts 87°
2026-05-08 23:11 48.58335 -78.95901 7501 ft 264 kts 112°
2026-05-08 23:12 48.57368 -78.93626 7505 ft 256 kts 139°
2026-05-08 23:12 48.55961 -78.92058 7504 ft 249 kts 157°
2026-05-08 23:12 48.54337 -78.91260 7495 ft 243 kts 175°
2026-05-08 23:12 48.52661 -78.90919 7500 ft 244 kts 176°
2026-05-08 23:13 48.50962 -78.90513 7265 ft 251 kts 175°
2026-05-08 23:13 48.49226 -78.90100 7003 ft 255 kts 175°
2026-05-08 23:13 48.47468 -78.89696 6744 ft 255 kts 175°
2026-05-08 23:13 48.45719 -78.89294 6494 ft 255 kts 175°
2026-05-08 23:14 48.43969 -78.88888 6248 ft 254 kts 175°
2026-05-08 23:14 48.42218 -78.88489 5989 ft 254 kts 175°
2026-05-08 23:14 48.40469 -78.88088 5638 ft 255 kts 175°
2026-05-08 23:14 48.38707 -78.87682 5279 ft 257 kts 174°
2026-05-08 23:15 48.36965 -78.87286 4908 ft 256 kts 175°
2026-05-08 23:15 48.35206 -78.86885 4541 ft 255 kts 174°
2026-05-08 23:15 48.33457 -78.86494 4173 ft 254 kts 175°
2026-05-08 23:15 48.31709 -78.86091 3808 ft 253 kts 174°
2026-05-08 23:16 48.29970 -78.85680 3448 ft 253 kts 174°
2026-05-08 23:16 48.28231 -78.85286 3033 ft 253 kts 175°
2026-05-08 23:16 48.26490 -78.84899 2627 ft 252 kts 175°
2026-05-08 23:16 48.24981 -78.84581 2253 ft 175 kts 178°
2026-05-08 23:17 48.24012 -78.84068 2056 ft 140 kts 132°
2026-05-08 23:17 48.23815 -78.82757 1899 ft 122 kts 85°
2026-05-08 23:17 48.24140 -78.81439 1884 ft 145 kts 69°
2026-05-08 23:17 48.24525 -78.80006 1799 ft 148 kts 69°
2026-05-08 23:18 48.24445 -78.78707 1715 ft 117 kts 140°
2026-05-08 23:18 48.23822 -78.78111 1688 ft 98 kts 157°
2026-05-08 23:18 48.23218 -78.77795 1664 ft 88 kts 184°
2026-05-08 23:18 48.22621 -78.77996 1639 ft 86 kts 216°
2026-05-08 23:19 48.22217 -78.78679 1507 ft 90 kts 242°
2026-05-08 23:19 48.21929 -78.79551 1448 ft 94 kts 243°
2026-05-08 23:19 48.21654 -78.80422 1280 ft 91 kts 243°
2026-05-08 23:19 48.21353 -78.81298 1143 ft 97 kts 245°
2026-05-08 23:20 48.21076 -78.82171 993 ft 81 kts 241°
2026-05-08 23:20 48.20920 -78.82649 985 ft 17 kts 248°
2026-05-08 23:20 48.20997 -78.82800 985 ft 40 kts 337°
2026-05-08 23:20 48.21143 -78.82932 988 ft 33 kts 291°
2026-05-08 23:21 48.21164 -78.82838 988 ft 48 kts 91°
2026-05-08 23:21 48.21194 -78.82760 991 ft 41 kts 217°
2026-05-08 23:21 48.21163 -78.83022 987 ft 0 kts